Regional Weather Roundup
Issued by NWS

Home | Current Version | Previous Version | Graphics & Text | Print | Product List | Glossary On
Versions: 1 2 3 4 5 6 7 8 9 10 11 12 13 14 15 16 17 18 19 20 21 22 23 24 25 26 27 28 29 30 31 32 33 34 35 36 37 38 39 40 41 42 43 44 45 46 47 48 49 50
000
ASUS45 KPSR 040510
RWRAZ

ARIZONA HOURLY REGIONAL WEATHER ROUNDUP
NATIONAL WEATHER SERVICE PHOENIX AZ
1000 PM MST FRI JUL 03 2015

NOTE: FAIR INDICATES FEW OR NO CLOUDS BELOW 12,000 FEET WITH NO
SIGNIFICANT WEATHER AND/OR OBSTRUCTIONS TO VISIBILITY.

AZZ001>003-036-040600-
NORTHWEST ARIZONA

CITY           SKY/WX    TMP DP  RH WIND       PRES   REMARKS
BULLHEAD CITY  CLOUDY   102  48  16 SE14      29.71R
KINGMAN        MOCLDY    85  49  28 SE14      29.97R
$$

AZZ004>008-015-016-018-040600-
NORTH CENTRAL ARIZONA

CITY           SKY/WX    TMP DP  RH WIND       PRES   REMARKS
GRAND CANYON   CLOUDY    65  56  72 S7        30.24R
WILLIAMS       CLOUDY    63  57  82 E12       30.35R
PRESCOTT       CLOUDY    72  58  61 SE6       30.12F
FLAGSTAFF      LGT RAIN  59  58  96 N3        30.33S
PAYSON         CLOUDY    72  57  60 NE6G12    30.15R
PAGE           CLOUDY    89  44  20 S8        29.98R
$$

AZZ009>014-017-040600-
NORTHEAST ARIZONA

CITY           SKY/WX    TMP DP  RH WIND       PRES   REMARKS
WINSLOW        LGT RAIN  68  63  84 S18       30.16R
SAINT JOHNS    CLOUDY    65  60  84 SE9       30.16S
WINDOW ROCK    CLOUDY    67  49  52 NE3       30.24R
SHOW LOW       CLOUDY    61  57  88 SW3       30.22F
$$

AZZ023-040600-
GREATER PHOENIX AREA

CITY           SKY/WX    TMP DP  RH WIND       PRES   REMARKS
PHOENIX        MOCLDY    96  60  30 N21G26    29.76R
BUCKEYE        CLOUDY    91  63  38 N7        29.77R
LUKE AFB       CLOUDY    93  64  38 NE14      29.77R
DEER VALLEY    CLOUDY    86  65  49 N13G23    29.80S
SCOTTSDALE     CLOUDY    87  64  46 N15       29.83R
MESA-GATEWAY   MOCLDY    91  63  38 CALM      29.80R
$$

AZZ027-028-040600-
SOUTHWEST MARICOPA COUNTY AND PINAL COUNTY

CITY           SKY/WX    TMP DP  RH WIND       PRES   REMARKS
CASA GRANDE    PTCLDY    90  55  31 N5        29.78R
GILA BEND      CLOUDY    98  56  25 NE6       29.73R
$$

AZZ503-504-507>509-040600-
SOUTHEAST ARIZONA

CITY           SKY/WX    TMP DP  RH WIND       PRES   REMARKS
TUCSON         MOCLDY    93  50  23 N8        29.88R
DAVIS-MONTHAN  MOCLDY    92  52  25 N10       29.87R
NOGALES        CLOUDY    80  58  46 NW3       29.98R
SIERRA VISTA   CLOUDY    82  54  38 VRB5      30.06R
DOUGLAS        CLOUDY    79  58  48 E5        30.01R
SAFFORD        MOCLDY    86  61  42 E8        29.89R
$$

AZZ020-021-025-026-031-040600-
SOUTHWEST ARIZONA

CITY           SKY/WX    TMP DP  RH WIND       PRES   REMARKS
YUMA           MOCLDY    96  61  31 SW7       29.69R
$$

CAZ031-033-041-043-047-048-061-040600-
SOUTHERN CALIFORNIA

CITY           SKY/WX    TMP DP  RH WIND       PRES   REMARKS
DOWNTOWN L.A.  PTCLDY    65  60  84 CALM      29.88R
L.A. AIRPORT   CLOUDY    63  60  90 SW7       29.89R
SAN DIEGO      CLOUDY    69  61  75 CALM      29.92R
BURBANK        CLEAR     69  59  70 E9        29.87R
ONTARIO        PTCLDY    74  55  51 SW6       29.89R
RIVERSIDE      PTCLDY    75  51  43 W6        29.89R
PALM SPRINGS   MOCLDY    97  53  22 NW22G29   29.71R
EL CENTRO NAS  MOCLDY    95  52  23 SW9       29.69R
IMPERIAL       MOCLDY    93  56  28 SW9       29.67R
BLYTHE         CLOUDY    94  60  32 CALM      29.69R
NEEDLES        CLOUDY   101  48  16 SW7       29.72R
$$

NVZ020-UTZ003-040600-
SOUTHERN NEVADA-UTAH

CITY           SKY/WX    TMP DP  RH WIND       PRES   REMARKS
LAS VEGAS      MOCLDY   101  34   9 SW13      29.73R
SALT LAKE CITY MOCLDY    85  50  29 S7        29.91R
$$

NMZ009-TXZ055-040600-
NEW MEXICO-WEST TEXAS

CITY           SKY/WX    TMP DP  RH WIND       PRES   REMARKS
ALBUQUERQUE    PTCLDY    75  55  49 S7        30.14R
EL PASO        MOCLDY    82  59  45 E14       30.01R
$$


........................KEY........................
SKY/WX - SKY CONDITION/WEATHER
TMP    - TEMPERATURE IN FAHRENHEIT
DP     - DEW POINT IN FAHRENHEIT
RH     - RELATIVE HUMIDITY IN PERCENT
WIND   - DIRECTION AND SPEED IN MILES PER HOUR (MPH)
VRB    - VARIABLE WIND DIRECTION
PRES   - MEAN SEA LEVEL PRESSURE IN INCHES OF MERCURY
         F - FALLING PRESSURE   R - RISING PRESSURE
         S - STEADY PRESSURE
VSB    - VISIBILITY IN MILES
HX     - HEAT INDEX IN FAHRENHEIT
WCI    - WIND CHILL INDEX IN FAHRENHEIT
TC     - TEMPERATURE IN CELSIUS WHICH IS ALSO KNOWN AS
         TEMPERATURE IN CENTIGRADE
AFB    - AIR FORCE BASE
         LUKE AFB IS LUKE AIR FORCE BASE
         DAVIS-MONTHAN IS DAVIS-MONTHAN AIR FORCE BASE
NAS    - NAVAL AIR STATION
         EL CENTRO NAS IS EL CENTRO NAVAL AIR STATION
N/A    - NOT AVAILABLE




USA.gov is the U.S. government's official web portal to all federal, state and local government web resources and services.